YO6IKB-10 Weather Reports


time (UTC)temp
C
wind
direction
speed
KPH
gust
KPH
rain 1hr
cm
rain 24hr
cm
rain mn
cm
humidity
%
barometer
mb
20260902230648 14 67 1.6 3.2 0.00 0.00 0.00 79 1016.1
20260902230148 14 0 0.0 3.2 0.00 0.00 0.00 78 1016.2
20260902225648 15 0 1.6 1.6 0.00 0.00 0.00 77 1016.3
20260902225147 15 337 0.0 0.0 0.00 0.00 0.00 77 1016.3
20260902224647 15 337 0.0 0.0 0.00 0.00 0.00 77 1016.3
20260902224147 15 337 0.0 1.6 0.00 0.00 0.00 77 1016.3
20260902223647 15 337 1.6 3.2 0.00 0.00 0.00 77 1016.2
20260902223146 15 337 1.6 3.2 0.00 0.00 0.00 77 1016.2
20260902222646 15 0 1.6 1.6 0.00 0.00 0.00 77 1016.3
20260902222146 15 337 0.0 1.6 0.00 0.00 0.00 77 1016.2
20260902221645 15 337 0.0 0.0 0.00 0.00 0.00 76 1016.2
20260902221145 15 337 0.0 4.8 0.00 0.00 0.00 76 1016.2
20260902220645 15 45 1.6 3.2 0.00 0.00 0.00 77 1016.2
20260902220145 15 22 1.6 6.4 0.00 0.00 0.00 77 1016.1
20260902215644 15 45 1.6 6.4 0.00 0.00 0.00 76 1016.2
20260902215144 15 292 3.2 3.2 0.00 0.00 0.00 76 1016.2
20260902214644 15 292 0.0 1.6 0.00 0.00 0.00 74 1016.2
20260902214143 16 292 0.0 1.6 0.00 0.00 0.00 73 1016.1
20260902213643 16 292 0.0 0.0 0.00 0.00 0.00 71 1016.1
20260902213143 16 292 0.0 0.0 0.00 0.00 0.00 71 1016.2
20260902212643 16 292 0.0 0.0 0.00 0.00 0.00 70 1016.2
20260902212142 16 292 0.0 1.6 0.00 0.00 0.00 71 1016.1
20260902211642 16 292 0.0 3.2 0.00 0.00 0.00 71 1016.0
20260902211142 16 292 1.6 1.6 0.00 0.00 0.00 71 1016.1
20260902210641 16 292 0.0 0.0 0.00 0.00 0.00 71 1016.0
20260902210141 16 292 0.0 1.6 0.00 0.00 0.00 71 1016.0
20260902205641 16 292 0.0 1.6 0.00 0.00 0.00 71 1016.0
20260902205140 16 292 0.0 3.2 0.00 0.00 0.00 71 1015.9
20260902204640 16 292 0.0 3.2 0.00 0.00 0.00 70 1015.9
20260902204140 17 292 0.0 1.6 0.00 0.00 0.00 68 1015.9
20260902203640 17 292 1.6 1.6 0.00 0.00 0.00 68 1016.0
20260902203139 17 292 1.6 3.2 0.00 0.00 0.00 67 1016.0
20260902202639 17 292 0.0 3.2 0.00 0.00 0.00 66 1016.0
20260902202139 17 292 0.0 0.0 0.00 0.00 0.00 65 1016.1
20260902201638 17 292 0.0 0.0 0.00 0.00 0.00 64 1016.0
20260902201138 17 292 0.0 0.0 0.00 0.00 0.00 63 1016.1
20260902200638 18 292 0.0 0.0 0.00 0.00 0.00 62 1016.1
20260902200138 18 292 0.0 1.6 0.00 0.00 0.00 63 1016.1
20260902195637 18 292 0.0 1.6 0.00 0.00 0.00 62 1016.1
20260902195137 18 292 0.0 0.0 0.00 0.00 0.00 61 1016.1
20260902194637 18 292 0.0 1.6 0.00 0.00 0.00 61 1016.1
20260902194136 18 292 0.0 1.6 0.00 0.00 0.00 61 1016.2
20260902193636 18 292 0.0 0.0 0.00 0.00 0.00 61 1016.1
20260902193136 18 292 0.0 0.0 0.00 0.00 0.00 61 1016.1
20260902192635 18 292 0.0 1.6 0.00 0.00 0.00 61 1016.1
20260902192135 18 292 1.6 1.6 0.00 0.00 0.00 61 1016.0
20260902191635 19 292 0.0 0.0 0.00 0.00 0.00 60 1016.1
20260902191135 19 292 0.0 3.2 0.00 0.00 0.00 60 1016.1
20260902190634 19 292 0.0 4.8 0.00 0.00 0.00 60 1016.1
20260902190134 19 292 0.0 3.2 0.00 0.00 0.00 60 1016.1
20260902185634 20 292 1.6 3.2 0.00 0.00 0.00 59 1016.2
20260902185133 20 292 3.2 3.2 0.00 0.00 0.00 59 1016.2
20260902184633 20 292 0.0 0.0 0.00 0.00 0.00 59 1016.2
20260902184133 20 292 0.0 1.6 0.00 0.00 0.00 59 1016.2
20260902183633 20 292 1.6 3.2 0.00 0.00 0.00 59 1016.1
20260902183132 20 292 1.6 1.6 0.00 0.00 0.00 58 1016.1
20260902182632 20 292 0.0 0.0 0.00 0.00 0.00 58 1016.0
20260902182132 20 292 0.0 0.0 0.00 0.00 0.00 58 1016.0
20260902181631 21 292 0.0 1.6 0.00 0.00 0.00 57 1015.9
20260902181131 21 292 0.0 0.0 0.00 0.00 0.00 56 1015.9
20260902180631 21 292 0.0 1.6 0.00 0.00 0.00 56 1015.9
20260902180130 21 292 0.0 3.2 0.00 0.00 0.00 56 1015.8
20260902175630 21 180 1.6 4.8 0.00 0.00 0.00 55 1015.7
20260902175130 21 0 3.2 3.2 0.00 0.00 0.00 54 1015.7
20260902174630 22 0 0.0 1.6 0.00 0.00 0.00 53 1015.6
20260902174129 22 0 0.0 3.2 0.00 0.00 0.00 52 1015.6
20260902173629 22 0 3.2 3.2 0.00 0.00 0.00 52 1015.5
20260902173129 22 0 0.0 0.0 0.00 0.00 0.00 51 1015.6
20260902172628 22 0 0.0 0.0 0.00 0.00 0.00 50 1015.5
20260902172128 22 0 0.0 1.6 0.00 0.00 0.00 50 1015.4
20260902171628 22 0 0.0 1.6 0.00 0.00 0.00 50 1015.5
20260902171128 22 0 0.0 3.2 0.00 0.00 0.00 49 1015.4
20260902170627 23 0 0.0 0.0 0.00 0.00 0.00 49 1015.4
20260902170127 23 0 0.0 0.0 0.00 0.00 0.00 49 1015.4
20260902165627 23 0 0.0 1.6 0.00 0.00 0.00 49 1015.3
20260902165126 23 0 0.0 1.6 0.00 0.00 0.00 49 1015.3
20260902164626 23 0 0.0 1.6 0.00 0.00 0.00 48 1015.3
20260902164126 23 0 0.0 3.2 0.00 0.00 0.00 48 1015.3
20260902163626 23 0 1.6 4.8 0.00 0.00 0.00 48 1015.3
20260902163125 23 0 3.2 4.8 0.00 0.00 0.00 49 1015.4
20260902162625 23 0 3.2 3.2 0.00 0.00 0.00 49 1015.3
20260902162125 23 0 0.0 3.2 0.00 0.00 0.00 49 1015.3
20260902161624 23 0 0.0 3.2 0.00 0.00 0.00 48 1015.3
20260902161124 23 0 0.0 6.4 0.00 0.00 0.00 48 1015.3
20260902160624 24 0 1.6 4.8 0.00 0.00 0.00 47 1015.4
20260902160123 24 22 1.6 6.4 0.00 0.00 0.00 47 1015.5
20260902155623 24 22 3.2 4.8 0.00 0.00 0.00 46 1015.5
20260902155123 24 22 0.0 0.0 0.00 0.00 0.00 47 1015.4
20260902154623 24 22 0.0 0.0 0.00 0.00 0.00 47 1015.4
20260902154122 25 22 0.0 4.8 0.00 0.00 0.00 46 1015.3
20260902153622 25 0 3.2 4.8 0.00 0.00 0.00 46 1015.2
20260902153122 25 0 3.2 4.8 0.00 0.00 0.00 45 1015.1
20260902152621 25 337 3.2 8.0 0.00 0.00 0.00 45 1015.0
20260902152121 26 0 4.8 9.7 0.00 0.00 0.00 44 1015.1
20260902151621 26 315 1.6 6.4 0.00 0.00 0.00 44 1015.2
20260902151121 26 225 0.0 4.8 0.00 0.00 0.00 45 1015.2
20260902150620 27 225 4.8 6.4 0.00 0.00 0.00 44 1015.3
20260902150120 27 202 3.2 8.0 0.00 0.00 0.00 44 1015.2
20260902145620 27 202 1.6 8.0 0.00 0.00 0.00 43 1015.2
20260902145119 27 225 3.2 11.3 0.00 0.00 0.00 44 1015.2
20260902144619 27 292 3.2 6.4 0.00 0.00 0.00 44 1015.1
20260902144119 27 247 4.8 8.0 0.00 0.00 0.00 44 1015.2
20260902143618 27 247 1.6 6.4 0.00 0.00 0.00 44 1015.3
20260902143118 27 225 4.8 4.8 0.00 0.00 0.00 44 1015.4
20260902142618 27 225 0.0 11.3 0.00 0.00 0.00 43 1015.4
20260902142118 27 202 3.2 9.7 0.00 0.00 0.00 44 1015.4
20260902141617 27 292 3.2 3.2 0.00 0.00 0.00 44 1015.3
20260902141117 27 292 0.0 6.4 0.00 0.00 0.00 43 1015.4
20260902140617 27 292 3.2 4.8 0.00 0.00 0.00 44 1015.5
20260902140116 27 292 0.0 14.5 0.00 0.00 0.00 43 1015.5
20260902135616 27 225 12.9 12.9 0.00 0.00 0.00 43 1015.6
20260902135116 28 225 6.4 14.5 0.00 0.00 0.00 42 1015.6
20260902134616 28 225 6.4 9.7 0.00 0.00 0.00 43 1015.6
20260902134115 28 247 0.0 9.7 0.00 0.00 0.00 43 1015.7
20260902133615 28 292 4.8 8.0 0.00 0.00 0.00 44 1015.7
20260902133115 28 292 8.0 8.0 0.00 0.00 0.00 44 1015.7
20260902132614 28 292 1.6 6.4 0.00 0.00 0.00 44 1015.8
20260902132114 28 292 0.0 9.7 0.00 0.00 0.00 44 1015.8
20260902131614 27 292 1.6 8.0 0.00 0.00 0.00 45 1015.8
20260902131113 27 292 1.6 6.4 0.00 0.00 0.00 45 1015.8
20260902130613 27 292 4.8 12.9 0.00 0.00 0.00 45 1015.8
20260902130113 27 292 3.2 9.7 0.00 0.00 0.00 45 1015.9
20260902125613 27 315 8.0 9.7 0.00 0.00 0.00 45 1015.9
20260902125112 28 292 6.4 8.0 0.00 0.00 0.00 44 1015.9
20260902124612 28 292 4.8 9.7 0.00 0.00 0.00 45 1015.9
20260902124112 27 292 1.6 8.0 0.00 0.00 0.00 46 1016.0
20260902123611 27 292 4.8 14.5 0.00 0.00 0.00 46 1016.0
20260902123111 27 315 3.2 9.7 0.00 0.00 0.00 45 1016.0
20260902122611 27 292 6.4 14.5 0.00 0.00 0.00 45 1016.1
20260902122111 27 315 6.4 12.9 0.00 0.00 0.00 46 1016.1
20260902121610 27 292 4.8 16.1 0.00 0.00 0.00 46 1016.1
20260902121110 27 292 6.4 16.1 0.00 0.00 0.00 46 1016.1
20260902120610 27 292 1.6 20.9 0.00 0.00 0.00 46 1016.1
20260902120109 27 315 9.7 16.1 0.00 0.00 0.00 46 1016.2
20260902115609 27 292 3.2 14.5 0.00 0.00 0.00 45 1016.2
20260902115109 27 315 11.3 12.9 0.00 0.00 0.00 46 1016.4
20260902114608 27 292 0.0 8.0 0.00 0.00 0.00 46 1016.4
20260902114108 27 292 1.6 12.9 0.00 0.00 0.00 46 1016.4
20260902113608 27 292 0.0 12.9 0.00 0.00 0.00 48 1016.4
20260902113108 27 292 6.4 8.0 0.00 0.00 0.00 48 1016.5
20260902112607 27 337 1.6 3.2 0.00 0.00 0.00 46 1016.5
20260902112107 27 292 3.2 11.3 0.00 0.00 0.00 46 1016.5
20260902111607 27 315 9.7 17.7 0.00 0.00 0.00 45 1016.7
20260902111106 28 202 1.6 11.3 0.00 0.00 0.00 46 1016.6
20260902110606 28 292 9.7 17.7 0.00 0.00 0.00 46 1016.5
20260902110106 28 337 1.6 6.4 0.00 0.00 0.00 46 1016.5
20260902105606 28 315 0.0 8.0 0.00 0.00 0.00 47 1016.6
20260902105105 27 292 3.2 11.3 0.00 0.00 0.00 48 1016.6
20260902104605 27 292 4.8 9.7 0.00 0.00 0.00 48 1016.6
20260902104105 27 292 4.8 12.9 0.00 0.00 0.00 46 1016.7
20260902103604 28 22 6.4 11.3 0.00 0.00 0.00 45 1016.6
20260902103104 28 337 8.0 12.9 0.00 0.00 0.00 47 1016.6
20260902102604 27 292 0.0 14.5 0.00 0.00 0.00 47 1016.6
20260902102105 27 225 12.9 16.1 0.00 0.00 0.00 48 1016.5
20260902101603 27 22 8.0 12.9 0.00 0.00 0.00 46 1016.7
20260902101103 27 292 4.8 22.5 0.00 0.00 0.00 47 1016.7
20260902100603 27 315 8.0 16.1 0.00 0.00 0.00 46 1016.8
20260902100104 28 0 4.8 11.3 0.00 0.00 0.00 44 1016.8
20260902095602 28 292 6.4 14.5 0.00 0.00 0.00 47 1016.9
20260902095102 28 292 3.2 9.7 0.00 0.00 0.00 47 1016.9
20260902094601 27 292 8.0 14.5 0.00 0.00 0.00 48 1016.9